SCP
0 0 0 0 0 0 0 0 0 0 0 0 0 0 0 0 0 0 0 0 0 0 0 0 0 0 0 0 0 0 0 0 0 0 0 0 0 0 0 0 0 0 0 0 0 0 0 0 0 0 0 0 0 0
0 0 0 0 0 0 0 0 0 0 0 0 0 0 0 0 0 0 0 0 0 0 0 -0 0 -0 0 0 0 0 0 0 -0 0 0 0 0 0 0 0 0 0 0 0 0 0 0 0 0 -0 0 0 0 0
0 0 0 0 0 0 0 0 0 0 0 0 0 0 0 0 0 0 0 0 0 0 0 -0 -0 0 0 0 0 0 0 -0 -0 0 0 0 0 0 0 0 0 0 0 0 0 0 0 0 0 0 0 0 0 0
0 0 0 0 0 0 0 0 0 0 0 0 0 0 0 0 0 0 0 0 0 0 -0 -0 -0 -0 0 0 0 -0 -0 -0 -0 0 0 0 0 0 0 0 0 0 0 0 0 0 0 0 0 0 0 -0 -0 -0
0 0 0 0 0 0 0 0 0 -0 0 0 0 -0 0 -0 0 0 0 0 0 0 0 0 -0 0 0 0 -0 -0 -0 -0 0 0 0 0 0 0 0 0 0 0 0 0 0 0 0 0 0 0 -0 -0 -0 -0
0 0 0 0 0 0 0 0 -0 -0 0 -0 -0 -0 -0 -0 0 0 0 0 0 0 0 -0 -0 -0 0 0 0 0 0 0 0 0 0 0 0 0 0 0 0 0 0 0 0 0 0 0 0 0 -0 -0 -0 0
0 0 0 0 0 0 0 0 -0 -0 0 -0 -0 -0 -0 -0 0 0 0 0 0 0 0 -0 -0 -0 -0 0 -0 -0 0 0 0 0 0 0 0 0 0 0 -0 0 0 0 0 0 0 0 0 0 -0 -0 -0 -0
0 0 0 0 0 0 0 -0 -0 -0 -0 -0 -0 -0 -0 0 0 0 0 0 0 0 0 -0 0 0 0 0 -0 0 0 0 -0 0 0 0 0 0 0 0 0 0 0 0 0 -0 0 0 0 0 0 0 0 -0
0 0 0 0 0 0 0 -0 -0 -0 -0 0 -0 -0 0 0 0 0 0 0 0 0 -0 -0 0 -0 -0 0 -0 0 0 -0 0 0 0 0 0 0 0 0 0 -0 -0 0 0 0 0 0 0 0 -0 -0 -0 -0
0 0 0 0 0 0 -0 -0 0 -0 -0 -0 0 0 0 0 -0 0 0 0 0 0 0 -0 0 -0 -0 -0 -0 0 0 0 0 0 0 0 0 0 0 0 -0 -0 0 0 0 0 0 0 0 -0 -0 -0 -0 -0
0 0 0 0 0 0 0 0 0 0 0 0 0 0 0 0 0 0 0 0 0 -0 0 -0 0 -0 -0 0 -0 0 0 0 0 0 0 0 0 0 0 0 0 -0 -0 -0 0 0 0 0 0 -0 -0 -0 -0 -0
0 0 0 0 -0 -0 0 0 0 0 0 0 0 0 0 0 0 0 0 0 -0 0 -0 -0 -0 0 -0 -0 0 0 0 0 0 0 0 0 0 0 0 0 0 0 0 0 0 -0 -0 -0 -0 -0 -0 -0 -0 -0
0 0 0 -0 -0 0 0 0 0 0 -0 0 0 0 0 0 0 0 0 0 0 -0 -0 -0 -0 -0 -0 -0 0 0 0 0 0 0 0 0 0 0 0 0 0 -0 -0 -0 -0 -0 -0 -0 -0 -0 -0 -0 -0 -0
0 0 -0 -0 0 0 0 0 0 0 0 0 0 0 0 0 0 0 0 0 0 0 -0 -0 -0 -0 0 0 0 0 0 0 0 0 0 0 0 0 0 0 0 -0 -0 -0 -0 -0 -0 -0 -0 -0 -0 -0 -0 -0
-0 -0 -0 -0 0 0 0 -0 -0 -0 0 0 0 0 0 0 0 0 0 0 0 0 -0 -0 -0 -0 0 0 0 0 0 0 0 0 0 0 0 0 0 -0 -0 -0 -0 -0 -0 -0 -0 -0 -0 -0 -0 -0 -0 0
-0 -0 0 0 0 0 -0 -0 0 0 -0 -0 0 -0 0 0 0 0 0 0 0 0 0 0 0 0 0 0 0 0 0 0 0 0 0 0 0 0 0 0 -0 -0 -0 -0 -0 -0 -0 -0 -0 -0 -0 0 0 0
0 0 0 0 0 -0 -0 0 0 0 -0 -0 0 -0 0 -0 0 0 0 0 -0 -0 0 0 0 0 0 0 0 0 0 0 0 0 0 0 0 0 0 0 0 0 -0 -0 -0 -0 -0 -0 -0 0 0 0 0 0
0 0 0 0 0 0 0 0 0 0 -0 -0 -0 0 0 0 0 0 0 -0 0 0 0 0 0 0 0 0 0 0 0 0 0 0 0 0 0 0 0 0 0 0 0 0 -0 -0 -0 -0 0 0 0 0 0 0
0 0 -0 -0 -0 0 0 0 0 -0 -0 -0 -0 -0 -0 0 -0 0 -0 0 0 -0 0 0 0 0 0 0 0 0 0 0 0 0 0 0 0 0 0 0 0 -0 -0 -0 -0 0 0 0 0 0 0 -0 0 0
0 -0 -0 -0 0 0 0 0 0 0 0 0 0 -0 0 0 0 -0 -0 -0 -0 -0 0 0 0 0 0 0 0 0 0 0 0 0 0 0 0 0 0 0 0 -0 -0 -0 -0 0 0 0 0 0 0 0 0 0
-0 0 0 0 0 0 0 0 0 0 0 0 0 0 0 0 -0 -0 -0 0 -0 0 0 0 0 0 0 0 0 0 0 0 0 0 0 0 0 0 0 0 -0 -0 -0 -0 -0 0 0 0 0 0 0 0 0 0
0 0 0 0 0 0 0 0 0 0 0 0 0 0 0 0 -0 -0 0 0 0 0 0 0 0 0 0 0 0 0 0 0 0 0 0 0 0 0 0 0 0 0 0 0 0 0 0 0 0 0 0 0 0 0
0 0 0 0 0 0 0 -0 -0 -0 0 0 0 0 0 0 0 0 0 -0 0 0 0 0 0 0 0 0 0 0 0 0 0 0 0 0 0 0 0 0 0 0 0 0 0 0 0 0 0 0 0 0 0 0
0 0 0 0 -0 0 0 -0 -0 0 0 0 0 0 0 0 0 0 -0 0 0 0 0 0 0 0 0 0 0 0 0 0 0 0 0 0 0 0 0 0 0 0 0 0 0 0 0 0 0 0 0 0 0 0
0 -0 -0 -0 -0 -0 -0 -0 0 0 0 0 0 0 0 0 0 0 -0 -0 -0 0 0 0 0 0 0 0 0 0 0 0 0 0 0 0 0 0 0 0 0 0 0 0 0 0 0 0 0 0 0 0 0 0
0 -0 -0 -0 -0 -0 0 0 0 0 0 0 0 0 0 0 0 0 0 0 0 0 0 0 0 0 0 0 0 0 0 0 0 0 0 0 0 0 0 0 0 0 0 0 0 0 0 0 0 0 0 0 0 0
0 -0 -0 0 0 0 0 0 0 0 0 0 0 0 0 0 0 0 0 0 -0 -0 -0 0 0 0 0 0 0 0 0 0 -0 0 0 0 0 0 0 0 0 0 0 0 0 0 0 0 0 0 0 0 0 0
0 0 -0 -0 0 0 0 -0 0 0 0 0 0 0 0 0 0 0 0 0 -0 -0 -0 -0 0 0 -0 0 0 0 0 0 0 0 0 0 0 0 0 -0 0 0 0 -0 -0 0 0 0 0 0 0 0 0 0
0 0 0 0 0 0 0 0 0 0 0 0 0 0 0 0 0 0 0 0 -0 -0 -0 -0 0 0 0 0 0 0 0 0 0 0 -0 0 0 0 -0 -0 -0 -0 0 0 0 0 0 0 0 0 0 0 0 0
0 -0 0 0 0 0 0 0 0 0 0 0 0 0 0 0 0 0 0 0 -0 -0 0 0 0 0 0 0 0 0 -0 0 0 0 0 -0 0 0 0 0 -0 0 0 0 -0 -0 0 0 0 0 0 0 0 0
0 -0 0 0 0 0 0 0 0 0 0 0 0 0 0 0 0 0 0 0 0 0 0 0 0 0 0 0 0 0 0 0 0 0 0 0 0 0 0 0 -0 -0 -0 -0 -0 -0 -0 -0 0 0 0 0 0 0
0 -0 0 0 0 0 0 0 0 0 0 0 0 0 0 0 0 0 0 0 0 0 0 0 0 0 0 0 0 0 0 0 0 0 0 0 -0 -0 -0 -0 -0 -0 -0 -0 0 0 0 0 0 0 0 0 0 0
0 0 0 0 0 0 0 0 0 0 0 0 0 0 0 0 0 0 0 0 0 0 0 0 0 0 0 0 0 0 0 0 0 0 0 0 0 0 0 0 -0 -0 -0 0 0 0 0 0 0 0 0 0 0 0
Wind_Speed_500mb
57 49 40 36 37 37 40 45 45 46 47 44 39 34 35 30 28 28 33 25 24 22 59 24 24 36 47 37 7 33 22 6 6 12 9 8 6 8 8 9 2 3 3 4 3 11 12 25 8 6 21 60 67 57
57 49 44 37 36 35 38 45 49 47 48 43 38 35 36 34 32 28 36 26 37 39 66 63 47 42 45 46 47 10 12 11 9 6 8 7 5 8 9 5 11 5 10 5 12 6 12 7 20 43 54 79 63 74
54 53 39 33 35 34 38 48 48 47 51 44 38 36 37 36 34 30 36 35 34 30 53 17 12 16 24 27 26 14 10 7 9 12 6 5 7 4 6 5 6 6 16 8 4 16 23 31 43 48 59 68 76 77
57 59 51 39 31 30 38 46 47 50 51 45 36 35 38 36 34 31 30 31 25 19 10 14 28 35 25 30 31 40 46 47 43 25 11 6 6 4 4 9 10 11 15 10 14 17 37 42 51 64 70 75 79 71
57 59 49 37 36 34 39 44 45 48 50 45 37 36 39 34 29 28 31 10 9 13 10 30 51 13 23 28 32 31 39 44 30 8 7 3 6 5 5 3 8 22 9 5 7 22 28 25 52 69 81 81 77 89
56 54 51 43 29 32 40 42 45 49 50 42 36 37 33 26 22 21 3 8 16 20 14 9 25 22 39 42 22 6 15 14 12 5 4 7 8 6 5 6 21 25 22 12 14 60 62 63 62 73 87 82 76 77
55 53 41 33 25 35 41 44 45 48 48 39 37 35 23 17 15 5 6 10 27 17 8 11 14 14 36 33 22 13 20 9 8 5 4 6 12 10 7 7 25 26 49 56 58 78 57 50 54 69 92 90 85 77
45 38 31 26 25 34 39 43 46 47 42 37 37 26 15 10 9 8 14 23 17 9 7 6 11 24 26 31 17 16 19 8 18 9 8 7 9 8 10 12 16 37 53 57 70 76 87 87 79 69 83 84 72 66
35 25 24 24 27 33 39 42 43 42 36 34 28 17 6 3 4 6 25 14 13 9 7 5 10 12 35 36 17 18 13 6 16 7 9 8 9 14 7 4 9 15 48 66 84 74 70 68 65 62 65 63 67 58
26 23 23 23 27 34 37 39 41 37 29 21 12 5 5 5 15 10 10 3 4 5 4 6 13 10 29 29 12 21 13 8 8 13 9 8 7 32 32 45 53 57 57 55 70 60 60 62 58 55 56 52 54 52
21 19 19 26 32 34 35 36 36 30 17 10 8 4 11 8 3 5 6 6 3 5 5 9 21 20 18 12 8 13 6 9 8 11 7 7 7 20 28 35 37 43 49 51 55 55 54 57 56 57 54 51 50 47
19 18 22 28 31 33 33 31 26 17 15 16 10 9 8 3 6 6 3 5 5 6 13 20 30 23 12 8 7 10 6 6 8 14 6 6 4 19 27 33 38 45 50 54 52 54 52 52 52 53 51 49 46 43
17 21 24 27 29 31 31 24 16 15 14 3 4 4 5 4 3 5 2 2 2 12 14 26 18 12 8 5 7 5 9 8 2 6 5 4 14 14 29 37 44 46 49 51 50 48 48 49 45 47 49 44 42 40
19 22 24 26 27 27 18 13 11 11 5 5 3 5 6 5 2 2 5 4 8 10 22 27 14 6 7 7 5 6 6 4 5 5 6 5 20 20 30 40 48 47 47 49 48 47 47 46 47 44 43 42 41 40
21 21 25 26 24 21 14 16 10 7 5 5 5 6 6 2 1 2 7 8 5 10 18 21 10 5 3 3 5 6 3 6 7 6 1 12 25 25 33 37 42 44 43 43 41 41 42 42 43 43 40 39 38 37
21 24 19 17 15 14 16 10 6 9 5 6 8 8 4 4 3 5 3 6 6 9 12 7 6 4 5 7 3 7 4 4 3 2 8 10 25 28 38 34 38 40 39 39 38 39 40 40 42 43 40 36 35 33
19 10 14 16 17 14 9 10 8 6 7 7 9 11 10 7 5 6 6 5 7 5 5 5 6 8 5 4 4 5 5 5 10 12 3 16 26 40 40 33 37 40 39 39 39 40 40 41 41 39 36 32 30 28
10 10 13 15 11 4 13 10 5 6 10 12 9 8 10 8 9 10 8 7 6 4 5 3 6 2 1 5 3 5 7 11 7 1 16 24 32 38 39 37 41 38 38 36 36 40 39 37 34 31 30 28 26 25
9 12 13 12 8 7 5 8 6 7 10 7 11 10 10 8 8 8 7 6 5 5 6 4 3 3 3 5 5 4 8 12 5 12 27 28 35 43 50 39 35 36 37 36 36 33 31 27 25 27 25 25 22 22
11 2 2 1 11 2 3 6 6 7 6 0 7 12 11 8 3 3 2 3 5 3 2 3 3 5 3 4 3 3 6 6 12 24 30 29 25 32 37 37 33 36 35 34 30 32 29 25 24 24 24 23 25 24
7 5 2 9 6 4 5 5 7 6 5 7 4 9 7 8 11 5 2 7 2 3 3 3 7 7 5 6 9 11 6 8 15 24 40 26 28 33 33 32 35 34 34 33 33 30 28 25 26 25 28 25 23 22
10 7 8 5 3 4 7 8 6 4 7 4 8 9 9 9 9 5 14 4 2 1 1 1 5 10 4 2 7 13 15 18 23 20 22 32 33 30 29 31 31 31 29 28 28 29 25 25 29 29 26 26 24 21
10 9 5 4 3 5 4 5 7 6 5 5 6 7 7 6 5 12 4 5 1 5 1 3 9 4 6 6 11 16 17 31 21 18 22 25 28 28 30 31 30 28 25 25 25 25 26 31 33 28 25 23 21 20
10 8 4 4 5 5 4 8 7 6 6 7 5 5 5 5 7 5 5 6 7 5 3 9 7 3 6 13 19 22 22 21 21 16 18 24 26 26 29 31 25 21 19 23 23 26 28 31 30 25 22 20 19 19
4 5 5 7 7 6 6 6 8 7 6 6 6 4 7 11 6 4 5 7 8 7 5 3 2 3 2 14 16 15 17 17 19 18 19 19 25 27 29 26 20 24 22 24 26 28 29 26 25 23 22 20 18 18
5 8 9 5 7 6 3 4 2 4 4 6 4 4 4 3 3 7 6 6 5 3 1 4 4 6 4 6 8 13 13 14 13 14 19 22 28 32 29 27 27 24 25 25 28 28 27 24 22 21 21 21 24 20
4 7 8 8 5 9 7 4 5 6 6 3 4 4 3 2 6 7 8 8 10 10 9 5 5 5 7 5 4 10 11 13 15 8 13 17 21 26 26 26 25 24 29 29 28 28 27 25 23 24 22 21 21 22
6 4 6 11 9 8 4 3 5 4 2 3 4 5 3 4 5 7 10 11 10 10 10 13 11 2 6 8 13 7 1 8 13 11 11 21 21 22 24 23 21 22 23 25 26 25 25 25 26 25 26 25 25 26
8 9 10 12 7 6 5 3 2 4 4 3 1 4 5 8 10 11 11 10 5 5 3 1 2 6 7 9 14 17 20 9 16 19 24 30 29 25 28 28 25 23 22 20 20 20 26 24 24 27 28 25 26 30
7 14 8 7 6 5 5 2 5 10 8 8 7 5 6 5 5 7 9 10 10 6 5 5 8 9 10 12 17 20 17 17 12 9 17 28 30 30 29 29 25 24 25 26 27 29 32 31 32 33 31 30 32 32
6 11 5 6 4 2 5 3 9 11 10 6 5 5 5 1 1 2 1 5 10 6 8 9 9 9 9 11 15 18 21 17 20 14 14 14 16 22 27 30 30 26 26 26 23 22 25 25 27 29 30 30 29 26
11 9 5 5 4 3 4 9 9 7 8 7 6 1 2 2 2 2 1 4 1 3 6 6 5 5 10 10 24 21 9 12 21 18 16 13 16 24 25 24 27 31 33 31 29 28 28 29 29 29 28 27 26 24
8 8 7 4 4 6 5 4 6 6 7 7 7 8 7 4 5 6 4 2 2 2 3 7 7 9 9 11 23 22 14 13 16 20 20 18 17 20 24 25 25 25 25 24 21 18 14 13 16 24 32 30 21 17
Wind_Direction_500mb
294 296 294 299 301 310 319 322 327 333 333 332 330 328 331 335 331 323 310 317 288 279 291 274 281 278 286 288 276 307 328 46 300 352 351 345 319 338 310 350 340 300 268 18 326 112 110 354 205 124 111 121 126 125
289 288 285 289 295 308 317 321 325 334 330 331 325 324 327 329 327 317 308 309 299 288 277 295 281 272 262 267 277 274 265 297 284 322 7 316 302 312 338 307 235 344 13 61 31 39 305 8 81 120 131 128 123 121
284 280 277 281 290 306 321 318 321 333 328 327 320 318 323 327 320 309 300 309 312 291 310 283 299 286 282 275 252 256 267 240 265 330 299 287 280 330 307 318 343 62 31 58 126 11 57 72 97 113 124 122 124 123
286 283 281 273 282 300 304 311 318 334 325 320 314 316 322 321 312 303 294 299 293 288 284 295 308 302 295 288 272 254 269 279 287 281 229 258 276 347 314 293 13 354 319 71 90 86 68 82 103 116 119 117 115 121
284 284 277 271 284 286 300 307 318 328 323 315 312 317 321 317 309 304 307 260 275 285 284 294 310 308 323 320 297 275 265 274 272 246 220 256 285 295 253 21 26 337 336 345 62 70 98 89 115 120 114 113 119 119
280 281 282 282 279 287 299 306 320 327 319 312 311 316 318 315 309 323 292 235 316 328 298 302 309 302 330 339 336 292 326 297 248 307 341 299 270 255 30 60 348 0 69 78 96 87 87 92 104 112 111 114 115 115
279 292 283 282 278 292 302 312 322 323 315 311 312 316 312 308 293 266 303 293 314 309 272 290 291 299 323 342 346 360 323 332 352 343 287 295 24 41 30 41 337 63 87 98 101 104 82 92 94 107 111 113 110 107
285 288 280 269 273 292 306 317 323 320 315 310 312 311 298 290 290 293 271 314 300 300 266 292 292 315 358 343 343 6 331 1 7 354 345 359 41 61 56 353 48 83 86 92 102 100 104 105 104 103 104 110 107 105
282 274 262 269 291 304 311 320 320 320 314 315 315 310 292 244 273 274 299 265 283 263 302 291 314 327 336 341 334 343 343 5 339 17 31 33 30 38 341 337 132 91 104 105 100 100 105 108 108 108 107 107 107 108
270 250 253 281 299 305 314 319 319 319 318 322 330 309 238 228 307 298 313 276 273 249 255 262 308 306 327 337 340 357 356 7 9 22 20 45 71 49 73 91 100 108 108 111 110 111 110 106 108 108 105 107 109 111
249 248 269 291 297 309 317 320 316 321 335 355 352 267 281 301 291 252 262 248 240 237 231 287 325 329 335 329 328 2 338 348 17 7 30 49 43 32 69 88 95 105 110 109 109 111 113 115 116 112 110 110 109 110
240 248 270 287 304 312 315 313 309 334 334 321 311 332 337 296 239 261 265 321 240 352 341 330 334 329 320 324 301 356 348 22 35 328 42 60 5 61 87 92 97 100 104 106 108 111 113 113 113 112 110 109 109 108
243 262 285 300 307 309 308 300 292 314 328 321 322 315 237 205 311 216 206 184 322 359 346 331 337 337 315 316 296 332 359 36 284 16 62 81 125 86 99 107 107 109 109 109 109 108 109 110 110 110 111 111 111 112
259 281 294 302 304 299 290 289 294 317 302 257 267 271 245 203 213 325 22 323 357 326 325 335 313 337 336 317 353 328 43 292 33 37 59 94 136 116 115 118 118 116 114 113 114 115 115 115 114 114 113 113 111 108
281 298 302 298 287 280 285 294 278 268 248 254 237 249 209 52 98 296 292 298 335 309 320 326 285 290 343 302 13 335 80 69 20 39 21 29 138 121 123 125 124 119 115 112 115 115 117 119 118 116 115 114 111 111
296 303 296 279 272 287 295 278 240 193 236 229 238 253 199 246 245 257 263 341 317 307 316 299 303 318 37 348 40 26 359 61 47 11 344 94 142 140 134 128 131 128 124 119 120 121 123 123 124 125 122 117 113 110
294 285 280 270 283 291 265 168 162 225 245 229 231 224 246 296 277 272 287 327 336 319 11 283 306 7 311 289 72 15 42 346 310 304 347 148 153 151 147 146 141 134 128 127 126 126 125 127 127 126 124 121 116 110
278 269 281 288 296 195 159 175 208 243 244 239 248 169 219 258 285 280 271 256 341 14 318 2 290 284 308 334 46 83 21 336 352 289 140 141 142 150 148 144 143 136 134 130 132 136 132 130 132 133 132 128 125 120
280 288 277 271 223 185 188 205 213 259 244 255 245 239 242 262 253 289 279 242 267 227 304 286 274 333 58 77 66 35 43 349 345 118 124 133 135 140 139 142 145 142 142 138 136 139 139 138 140 142 147 142 143 141
313 233 48 280 142 201 266 218 217 262 268 36 240 231 240 262 254 204 329 118 155 150 188 251 3 0 300 286 274 309 2 12 131 128 131 136 139 143 152 152 148 147 144 145 145 147 146 146 149 149 150 151 149 149
187 184 136 137 132 202 259 251 225 247 275 254 221 243 235 222 230 239 182 161 148 266 177 69 354 328 295 273 231 202 200 142 124 135 152 151 145 147 147 152 150 153 155 158 156 159 157 153 149 146 137 137 143 143
175 167 153 175 218 237 257 232 257 282 252 260 246 226 231 218 190 170 145 85 306 84 308 142 24 11 43 175 167 174 177 169 133 145 154 154 150 154 156 157 157 160 164 164 164 160 158 156 151 150 149 148 142 140
162 180 178 217 258 235 258 211 245 214 244 219 214 219 195 183 110 142 94 102 94 10 296 275 339 36 45 81 134 154 159 158 146 130 144 155 158 159 160 160 163 161 158 160 163 164 162 163 156 156 160 156 161 168
169 180 211 227 230 262 230 220 215 247 247 233 219 205 134 73 177 202 117 127 147 320 338 299 293 300 100 107 121 139 146 143 143 141 152 154 155 159 163 167 168 174 168 166 164 165 167 163 170 169 175 178 185 190
192 198 205 227 219 239 225 214 191 220 230 197 224 156 127 200 181 136 92 96 164 245 277 292 243 208 83 104 114 136 146 151 162 175 176 182 184 174 170 170 173 175 171 168 168 168 168 177 181 190 197 198 201 203
237 199 200 215 172 230 222 218 255 253 254 208 172 122 179 208 99 72 70 77 71 49 67 155 151 162 125 75 132 140 148 152 147 152 174 181 177 173 173 176 178 185 183 182 179 178 181 185 189 194 198 197 198 192
242 224 201 224 264 260 226 106 187 253 259 192 133 154 202 108 80 85 115 105 84 75 73 102 145 168 176 158 106 184 191 200 193 180 162 172 181 193 200 190 192 193 190 188 189 193 196 199 200 199 200 200 203 198
252 247 215 178 228 235 284 195 202 187 282 287 202 172 122 53 84 121 127 131 104 92 81 66 68 287 292 239 230 221 191 200 195 187 182 186 185 181 182 181 177 170 174 190 199 205 209 211 207 208 210 215 209 207
227 207 209 221 215 219 236 269 124 112 210 285 150 86 79 81 113 126 148 162 209 224 205 197 31 342 317 263 241 235 207 198 201 204 203 190 186 192 191 193 196 196 200 210 215 220 210 209 210 212 223 218 214 224
208 188 213 204 221 208 147 165 109 131 107 79 74 95 112 118 147 197 225 220 230 238 227 271 305 312 296 286 229 219 223 200 205 212 201 201 196 187 192 191 200 202 239 228 216 226 209 213 224 224 225 227 230 234
171 184 221 213 227 148 107 88 142 124 134 121 69 358 8 165 199 313 349 262 212 228 273 292 298 285 282 296 207 187 188 200 197 176 143 148 166 192 206 212 218 224 199 186 190 200 213 220 220 222 223 227 233 233
185 206 213 211 192 187 243 208 190 170 176 180 178 162 152 227 168 150 39 75 231 280 305 297 301 299 265 258 200 173 160 161 189 192 188 188 198 199 192 192 200 200 197 201 203 206 213 221 229 231 228 233 228 196
201 204 220 261 229 221 219 227 184 158 193 213 211 188 179 192 143 194 191 194 232 311 282 276 292 302 244 215 193 170 157 191 206 187 178 175 174 180 192 199 199 197 200 206 206 202 204 231 242 231 218 229 233 227
Wind_Speed_850mb
57 49 40 36 37 37 40 45 45 46 47 44 39 34 35 30 28 28 33 25 24 22 59 24 24 36 47 37 7 33 22 6 6 12 9 8 6 8 8 9 2 3 3 4 3 11 12 25 8 6 21 60 67 57
57 49 44 37 36 35 38 45 49 47 48 43 38 35 36 34 32 28 36 26 37 39 66 63 47 42 45 46 47 10 12 11 9 6 8 7 5 8 9 5 11 5 10 5 12 6 12 7 20 43 54 79 63 74
54 53 39 33 35 34 38 48 48 47 51 44 38 36 37 36 34 30 36 35 34 30 53 17 12 16 24 27 26 14 10 7 9 12 6 5 7 4 6 5 6 6 16 8 4 16 23 31 43 48 59 68 76 77
57 59 51 39 31 30 38 46 47 50 51 45 36 35 38 36 34 31 30 31 25 19 10 14 28 35 25 30 31 40 46 47 43 25 11 6 6 4 4 9 10 11 15 10 14 17 37 42 51 64 70 75 79 71
57 59 49 37 36 34 39 44 45 48 50 45 37 36 39 34 29 28 31 10 9 13 10 30 51 13 23 28 32 31 39 44 30 8 7 3 6 5 5 3 8 22 9 5 7 22 28 25 52 69 81 81 77 89
56 54 51 43 29 32 40 42 45 49 50 42 36 37 33 26 22 21 3 8 16 20 14 9 25 22 39 42 22 6 15 14 12 5 4 7 8 6 5 6 21 25 22 12 14 60 62 63 62 73 87 82 76 77
55 53 41 33 25 35 41 44 45 48 48 39 37 35 23 17 15 5 6 10 27 17 8 11 14 14 36 33 22 13 20 9 8 5 4 6 12 10 7 7 25 26 49 56 58 78 57 50 54 69 92 90 85 77
45 38 31 26 25 34 39 43 46 47 42 37 37 26 15 10 9 8 14 23 17 9 7 6 11 24 26 31 17 16 19 8 18 9 8 7 9 8 10 12 16 37 53 57 70 76 87 87 79 69 83 84 72 66
35 25 24 24 27 33 39 42 43 42 36 34 28 17 6 3 4 6 25 14 13 9 7 5 10 12 35 36 17 18 13 6 16 7 9 8 9 14 7 4 9 15 48 66 84 74 70 68 65 62 65 63 67 58
26 23 23 23 27 34 37 39 41 37 29 21 12 5 5 5 15 10 10 3 4 5 4 6 13 10 29 29 12 21 13 8 8 13 9 8 7 32 32 45 53 57 57 55 70 60 60 62 58 55 56 52 54 52
21 19 19 26 32 34 35 36 36 30 17 10 8 4 11 8 3 5 6 6 3 5 5 9 21 20 18 12 8 13 6 9 8 11 7 7 7 20 28 35 37 43 49 51 55 55 54 57 56 57 54 51 50 47
19 18 22 28 31 33 33 31 26 17 15 16 10 9 8 3 6 6 3 5 5 6 13 20 30 23 12 8 7 10 6 6 8 14 6 6 4 19 27 33 38 45 50 54 52 54 52 52 52 53 51 49 46 43
17 21 24 27 29 31 31 24 16 15 14 3 4 4 5 4 3 5 2 2 2 12 14 26 18 12 8 5 7 5 9 8 2 6 5 4 14 14 29 37 44 46 49 51 50 48 48 49 45 47 49 44 42 40
19 22 24 26 27 27 18 13 11 11 5 5 3 5 6 5 2 2 5 4 8 10 22 27 14 6 7 7 5 6 6 4 5 5 6 5 20 20 30 40 48 47 47 49 48 47 47 46 47 44 43 42 41 40
21 21 25 26 24 21 14 16 10 7 5 5 5 6 6 2 1 2 7 8 5 10 18 21 10 5 3 3 5 6 3 6 7 6 1 12 25 25 33 37 42 44 43 43 41 41 42 42 43 43 40 39 38 37
21 24 19 17 15 14 16 10 6 9 5 6 8 8 4 4 3 5 3 6 6 9 12 7 6 4 5 7 3 7 4 4 3 2 8 10 25 28 38 34 38 40 39 39 38 39 40 40 42 43 40 36 35 33
19 10 14 16 17 14 9 10 8 6 7 7 9 11 10 7 5 6 6 5 7 5 5 5 6 8 5 4 4 5 5 5 10 12 3 16 26 40 40 33 37 40 39 39 39 40 40 41 41 39 36 32 30 28
10 10 13 15 11 4 13 10 5 6 10 12 9 8 10 8 9 10 8 7 6 4 5 3 6 2 1 5 3 5 7 11 7 1 16 24 32 38 39 37 41 38 38 36 36 40 39 37 34 31 30 28 26 25
9 12 13 12 8 7 5 8 6 7 10 7 11 10 10 8 8 8 7 6 5 5 6 4 3 3 3 5 5 4 8 12 5 12 27 28 35 43 50 39 35 36 37 36 36 33 31 27 25 27 25 25 22 22
11 2 2 1 11 2 3 6 6 7 6 0 7 12 11 8 3 3 2 3 5 3 2 3 3 5 3 4 3 3 6 6 12 24 30 29 25 32 37 37 33 36 35 34 30 32 29 25 24 24 24 23 25 24
7 5 2 9 6 4 5 5 7 6 5 7 4 9 7 8 11 5 2 7 2 3 3 3 7 7 5 6 9 11 6 8 15 24 40 26 28 33 33 32 35 34 34 33 33 30 28 25 26 25 28 25 23 22
10 7 8 5 3 4 7 8 6 4 7 4 8 9 9 9 9 5 14 4 2 1 1 1 5 10 4 2 7 13 15 18 23 20 22 32 33 30 29 31 31 31 29 28 28 29 25 25 29 29 26 26 24 21
10 9 5 4 3 5 4 5 7 6 5 5 6 7 7 6 5 12 4 5 1 5 1 3 9 4 6 6 11 16 17 31 21 18 22 25 28 28 30 31 30 28 25 25 25 25 26 31 33 28 25 23 21 20
10 8 4 4 5 5 4 8 7 6 6 7 5 5 5 5 7 5 5 6 7 5 3 9 7 3 6 13 19 22 22 21 21 16 18 24 26 26 29 31 25 21 19 23 23 26 28 31 30 25 22 20 19 19
4 5 5 7 7 6 6 6 8 7 6 6 6 4 7 11 6 4 5 7 8 7 5 3 2 3 2 14 16 15 17 17 19 18 19 19 25 27 29 26 20 24 22 24 26 28 29 26 25 23 22 20 18 18
5 8 9 5 7 6 3 4 2 4 4 6 4 4 4 3 3 7 6 6 5 3 1 4 4 6 4 6 8 13 13 14 13 14 19 22 28 32 29 27 27 24 25 25 28 28 27 24 22 21 21 21 24 20
4 7 8 8 5 9 7 4 5 6 6 3 4 4 3 2 6 7 8 8 10 10 9 5 5 5 7 5 4 10 11 13 15 8 13 17 21 26 26 26 25 24 29 29 28 28 27 25 23 24 22 21 21 22
6 4 6 11 9 8 4 3 5 4 2 3 4 5 3 4 5 7 10 11 10 10 10 13 11 2 6 8 13 7 1 8 13 11 11 21 21 22 24 23 21 22 23 25 26 25 25 25 26 25 26 25 25 26
8 9 10 12 7 6 5 3 2 4 4 3 1 4 5 8 10 11 11 10 5 5 3 1 2 6 7 9 14 17 20 9 16 19 24 30 29 25 28 28 25 23 22 20 20 20 26 24 24 27 28 25 26 30
7 14 8 7 6 5 5 2 5 10 8 8 7 5 6 5 5 7 9 10 10 6 5 5 8 9 10 12 17 20 17 17 12 9 17 28 30 30 29 29 25 24 25 26 27 29 32 31 32 33 31 30 32 32
6 11 5 6 4 2 5 3 9 11 10 6 5 5 5 1 1 2 1 5 10 6 8 9 9 9 9 11 15 18 21 17 20 14 14 14 16 22 27 30 30 26 26 26 23 22 25 25 27 29 30 30 29 26
11 9 5 5 4 3 4 9 9 7 8 7 6 1 2 2 2 2 1 4 1 3 6 6 5 5 10 10 24 21 9 12 21 18 16 13 16 24 25 24 27 31 33 31 29 28 28 29 29 29 28 27 26 24
8 8 7 4 4 6 5 4 6 6 7 7 7 8 7 4 5 6 4 2 2 2 3 7 7 9 9 11 23 22 14 13 16 20 20 18 17 20 24 25 25 25 25 24 21 18 14 13 16 24 32 30 21 17
Wind_Direction_850mb
294 296 294 299 301 310 319 322 327 333 333 332 330 328 331 335 331 323 310 317 288 279 291 274 281 278 286 288 276 307 328 46 300 352 351 345 319 338 310 350 340 300 268 18 326 112 110 354 205 124 111 121 126 125
289 288 285 289 295 308 317 321 325 334 330 331 325 324 327 329 327 317 308 309 299 288 277 295 281 272 262 267 277 274 265 297 284 322 7 316 302 312 338 307 235 344 13 61 31 39 305 8 81 120 131 128 123 121
284 280 277 281 290 306 321 318 321 333 328 327 320 318 323 327 320 309 300 309 312 291 310 283 299 286 282 275 252 256 267 240 265 330 299 287 280 330 307 318 343 62 31 58 126 11 57 72 97 113 124 122 124 123
286 283 281 273 282 300 304 311 318 334 325 320 314 316 322 321 312 303 294 299 293 288 284 295 308 302 295 288 272 254 269 279 287 281 229 258 276 347 314 293 13 354 319 71 90 86 68 82 103 116 119 117 115 121
284 284 277 271 284 286 300 307 318 328 323 315 312 317 321 317 309 304 307 260 275 285 284 294 310 308 323 320 297 275 265 274 272 246 220 256 285 295 253 21 26 337 336 345 62 70 98 89 115 120 114 113 119 119
280 281 282 282 279 287 299 306 320 327 319 312 311 316 318 315 309 323 292 235 316 328 298 302 309 302 330 339 336 292 326 297 248 307 341 299 270 255 30 60 348 0 69 78 96 87 87 92 104 112 111 114 115 115
279 292 283 282 278 292 302 312 322 323 315 311 312 316 312 308 293 266 303 293 314 309 272 290 291 299 323 342 346 360 323 332 352 343 287 295 24 41 30 41 337 63 87 98 101 104 82 92 94 107 111 113 110 107
285 288 280 269 273 292 306 317 323 320 315 310 312 311 298 290 290 293 271 314 300 300 266 292 292 315 358 343 343 6 331 1 7 354 345 359 41 61 56 353 48 83 86 92 102 100 104 105 104 103 104 110 107 105
282 274 262 269 291 304 311 320 320 320 314 315 315 310 292 244 273 274 299 265 283 263 302 291 314 327 336 341 334 343 343 5 339 17 31 33 30 38 341 337 132 91 104 105 100 100 105 108 108 108 107 107 107 108
270 250 253 281 299 305 314 319 319 319 318 322 330 309 238 228 307 298 313 276 273 249 255 262 308 306 327 337 340 357 356 7 9 22 20 45 71 49 73 91 100 108 108 111 110 111 110 106 108 108 105 107 109 111
249 248 269 291 297 309 317 320 316 321 335 355 352 267 281 301 291 252 262 248 240 237 231 287 325 329 335 329 328 2 338 348 17 7 30 49 43 32 69 88 95 105 110 109 109 111 113 115 116 112 110 110 109 110
240 248 270 287 304 312 315 313 309 334 334 321 311 332 337 296 239 261 265 321 240 352 341 330 334 329 320 324 301 356 348 22 35 328 42 60 5 61 87 92 97 100 104 106 108 111 113 113 113 112 110 109 109 108
243 262 285 300 307 309 308 300 292 314 328 321 322 315 237 205 311 216 206 184 322 359 346 331 337 337 315 316 296 332 359 36 284 16 62 81 125 86 99 107 107 109 109 109 109 108 109 110 110 110 111 111 111 112
259 281 294 302 304 299 290 289 294 317 302 257 267 271 245 203 213 325 22 323 357 326 325 335 313 337 336 317 353 328 43 292 33 37 59 94 136 116 115 118 118 116 114 113 114 115 115 115 114 114 113 113 111 108
281 298 302 298 287 280 285 294 278 268 248 254 237 249 209 52 98 296 292 298 335 309 320 326 285 290 343 302 13 335 80 69 20 39 21 29 138 121 123 125 124 119 115 112 115 115 117 119 118 116 115 114 111 111
296 303 296 279 272 287 295 278 240 193 236 229 238 253 199 246 245 257 263 341 317 307 316 299 303 318 37 348 40 26 359 61 47 11 344 94 142 140 134 128 131 128 124 119 120 121 123 123 124 125 122 117 113 110
294 285 280 270 283 291 265 168 162 225 245 229 231 224 246 296 277 272 287 327 336 319 11 283 306 7 311 289 72 15 42 346 310 304 347 148 153 151 147 146 141 134 128 127 126 126 125 127 127 126 124 121 116 110
278 269 281 288 296 195 159 175 208 243 244 239 248 169 219 258 285 280 271 256 341 14 318 2 290 284 308 334 46 83 21 336 352 289 140 141 142 150 148 144 143 136 134 130 132 136 132 130 132 133 132 128 125 120
280 288 277 271 223 185 188 205 213 259 244 255 245 239 242 262 253 289 279 242 267 227 304 286 274 333 58 77 66 35 43 349 345 118 124 133 135 140 139 142 145 142 142 138 136 139 139 138 140 142 147 142 143 141
313 233 48 280 142 201 266 218 217 262 268 36 240 231 240 262 254 204 329 118 155 150 188 251 3 0 300 286 274 309 2 12 131 128 131 136 139 143 152 152 148 147 144 145 145 147 146 146 149 149 150 151 149 149
187 184 136 137 132 202 259 251 225 247 275 254 221 243 235 222 230 239 182 161 148 266 177 69 354 328 295 273 231 202 200 142 124 135 152 151 145 147 147 152 150 153 155 158 156 159 157 153 149 146 137 137 143 143
175 167 153 175 218 237 257 232 257 282 252 260 246 226 231 218 190 170 145 85 306 84 308 142 24 11 43 175 167 174 177 169 133 145 154 154 150 154 156 157 157 160 164 164 164 160 158 156 151 150 149 148 142 140
162 180 178 217 258 235 258 211 245 214 244 219 214 219 195 183 110 142 94 102 94 10 296 275 339 36 45 81 134 154 159 158 146 130 144 155 158 159 160 160 163 161 158 160 163 164 162 163 156 156 160 156 161 168
169 180 211 227 230 262 230 220 215 247 247 233 219 205 134 73 177 202 117 127 147 320 338 299 293 300 100 107 121 139 146 143 143 141 152 154 155 159 163 167 168 174 168 166 164 165 167 163 170 169 175 178 185 190
192 198 205 227 219 239 225 214 191 220 230 197 224 156 127 200 181 136 92 96 164 245 277 292 243 208 83 104 114 136 146 151 162 175 176 182 184 174 170 170 173 175 171 168 168 168 168 177 181 190 197 198 201 203
237 199 200 215 172 230 222 218 255 253 254 208 172 122 179 208 99 72 70 77 71 49 67 155 151 162 125 75 132 140 148 152 147 152 174 181 177 173 173 176 178 185 183 182 179 178 181 185 189 194 198 197 198 192
242 224 201 224 264 260 226 106 187 253 259 192 133 154 202 108 80 85 115 105 84 75 73 102 145 168 176 158 106 184 191 200 193 180 162 172 181 193 200 190 192 193 190 188 189 193 196 199 200 199 200 200 203 198
252 247 215 178 228 235 284 195 202 187 282 287 202 172 122 53 84 121 127 131 104 92 81 66 68 287 292 239 230 221 191 200 195 187 182 186 185 181 182 181 177 170 174 190 199 205 209 211 207 208 210 215 209 207
227 207 209 221 215 219 236 269 124 112 210 285 150 86 79 81 113 126 148 162 209 224 205 197 31 342 317 263 241 235 207 198 201 204 203 190 186 192 191 193 196 196 200 210 215 220 210 209 210 212 223 218 214 224
208 188 213 204 221 208 147 165 109 131 107 79 74 95 112 118 147 197 225 220 230 238 227 271 305 312 296 286 229 219 223 200 205 212 201 201 196 187 192 191 200 202 239 228 216 226 209 213 224 224 225 227 230 234
171 184 221 213 227 148 107 88 142 124 134 121 69 358 8 165 199 313 349 262 212 228 273 292 298 285 282 296 207 187 188 200 197 176 143 148 166 192 206 212 218 224 199 186 190 200 213 220 220 222 223 227 233 233
185 206 213 211 192 187 243 208 190 170 176 180 178 162 152 227 168 150 39 75 231 280 305 297 301 299 265 258 200 173 160 161 189 192 188 188 198 199 192 192 200 200 197 201 203 206 213 221 229 231 228 233 228 196
201 204 220 261 229 221 219 227 184 158 193 213 211 188 179 192 143 194 191 194 232 311 282 276 292 302 244 215 193 170 157 191 206 187 178 175 174 180 192 199 199 197 200 206 206 202 204 231 242 231 218 229 233 227